Simultaneous Nadir Overpasses (SNOs) Predictions

Prediction of SNOs between GOES-16 and NOAA-20 Satellite Orbit:

Table of predicted SNOs for the next 14.0 days since TLE Epoch: 5/9/2020
Index Date Time (GOES-16) GOES-16 Lat,Lon NOAA-20 Lat,Lon Distance(km) Time Diff (sec)
1 05/09/2020 06:32:49 -0.02, -75.19 0.30, -76.53 154.00 80
2 05/10/2020 06:11:24 -0.02, -75.19 -0.73, -72.01 362.61 80
3 05/11/2020 18:33:21 0.01, -75.21 -0.45, -77.32 239.77 80
4 05/12/2020 18:17:15 0.01, -75.22 0.53, -72.78 277.53 80
5 05/14/2020 06:39:02 -0.01, -75.22 0.64, -78.05 322.39 80
6 05/15/2020 06:17:38 -0.01, -75.23 -0.39, -73.52 195.18 80
7 05/16/2020 18:39:34 0.00, -75.26 -0.78, -78.83 406.08 80
8 05/17/2020 18:23:29 0.01, -75.28 0.20, -74.29 112.22 80
9 05/19/2020 06:45:16 -0.00, -75.30 0.98, -79.56 486.03 80
10 05/20/2020 06:23:52 -0.00, -75.32 -0.06, -75.03 32.30 80
11 05/22/2020 18:27:03 0.00, -75.38 -0.07, -75.82 49.69 80




NCC Satellite Simultaneous Nadir Overpasses (SNOs) Prediction Service
